Weather History for Shepherd Bay, NU

Change the Weather History Date:

Wednesday, January 2, 2013

  Actual Average Record
Temperature  
Mean Temperature -32 °F -  
Max Temperature -25 °F - - ()
Min Temperature -40 °F - - ()
Degree Days  
Heating Degree Days 98    
Moisture  
Dew Point -    
Average Humidity    
Maximum Humidity    
Minimum Humidity    
Precipitation  
Precipitation 0.00 in - - ()
Sea Level Pressure  
Sea Level Pressure 30.00 in    
Wind  
Wind Speed 9 mph ()    
Max Wind Speed 15 mph    
Max Gust Speed -    
Visibility 5.2 miles    
Events      
T = Trace of Precipitation, MM = Missing Value Source: Averaged Metar Reports

Daily Weather History Graph

Daily Weather History Graph

Search for Another Location

Airport:

Trip Planner

Search our weather history database for the weather conditions in past years. The results will help you decide how hot, cold, wet, or windy it might be!

Date:

Astronomy

Jan. 02, 2013 Rise Set
Actual Time 11:45 AM CST 12:50 PM CST
Civil Twilight 9:40 AM CST 2:55 PM CST
Nautical Twilight 8:08 AM CST 4:28 PM CST
Astronomical Twilight 6:54 AM CST 5:41 PM CST
Moon 10:33 PM CST (1/2) 10:34 AM CST (1/2)
Length of Visible Light 5h 14m
Length of Day
1h 04m
Waning Gibbous, 75% of the Moon is Illuminated
Jan 2
Waning Gibbous
Jan 4
Last Quarter
Jan 11
New
Jan 18
First Quarter
Jan 26
Full

Hourly Weather History & Observations

Time (CST) Temp. Windchill Dew Point Humidity Pressure Visibility Wind Dir Wind Speed Gust Speed Precip Events Conditions
12:00 AM -35 °F - - % 30.03 in 9 mi SE 8.1 mph - -  
12:00 AM -34.6 °F -54.6 °F - N/A% 30.03 in 9.0 mi SE 6.9 mph - N/A   Unknown
1:00 AM -36.4 °F -56.8 °F - N/A% 30.04 in 9.0 mi ESE 6.9 mph - N/A   Unknown
2:00 AM -36.4 °F -54.8 °F - N/A% 30.06 in 9.0 mi ESE 5.8 mph - N/A   Unknown
4:00 AM -38.2 °F -58.9 °F - N/A% 30.06 in 9.0 mi SE 6.9 mph - N/A   Unknown
5:00 AM -38.2 °F -54.5 °F - N/A% 30.07 in 9.0 mi SSE 4.6 mph - N/A   Unknown
6:00 AM -40 °F - - % 30.07 in 9 mi SE 8.1 mph - -  
7:00 AM -38.2 °F -56.9 °F - N/A% 30.07 in 9.0 mi South 5.8 mph - N/A   Unknown
7:22 AM -40.0 °F -61.1 °F - N/A% 30.05 in 9.0 mi SSW 6.9 mph - N/A   Unknown
8:00 AM -40.0 °F -59.0 °F - N/A% 30.08 in 9.0 mi South 5.8 mph - N/A   Unknown
9:00 AM -35 °F - - % 30.09 in 9 mi SW 8.1 mph - -  
9:00 AM -34.6 °F -56.3 °F - N/A% 30.09 in 9.0 mi SW 8.1 mph - N/A   Unknown
9:49 AM -36.4 °F -58.5 °F - N/A% 30.04 in 8.0 mi South 8.1 mph - N/A   Unknown
10:00 AM -36.4 °F -58.5 °F - N/A% 30.08 in 7.0 mi SSW 8.1 mph - N/A   Unknown
11:00 AM -31.0 °F -53.4 °F - N/A% 30.07 in 7.0 mi SW 9.2 mph - N/A   Unknown
11:11 AM -31.0 °F -53.4 °F - N/A% 30.03 in 9.0 mi SW 9.2 mph - N/A   Unknown
12:00 PM -33 °F - - % 30.06 in 9 mi SSW 11.5 mph - -  
12:00 PM -32.8 °F -59.3 °F - N/A% 30.06 in 9.0 mi SSW 12.7 mph - N/A   Unknown
12:10 PM -32.8 °F -58.2 °F - N/A% 30.03 in 8.0 mi SSW 11.5 mph - N/A   Unknown
12:47 PM -32.8 °F -60.4 °F - N/A% 30.02 in 9.0 mi SW 13.8 mph - N/A   Unknown
1:00 PM -32.8 °F -59.3 °F - N/A% 30.06 in 9.0 mi SW 12.7 mph - N/A   Unknown
1:10 PM -32.8 °F -57.0 °F - N/A% 30.02 in 9.0 mi SSW 10.4 mph - N/A   Unknown
1:26 PM -32.8 °F -58.2 °F - N/A% 30.02 in 9.0 mi SSW 11.5 mph - N/A   Unknown
1:44 PM -32.8 °F -61.4 °F - N/A% 30.02 in 9.0 mi SW 15.0 mph - N/A   Unknown
1:57 PM -32.8 °F -57.0 °F - N/A% 30.02 in 8.0 mi SSW 10.4 mph - N/A   Unknown
2:00 PM -32.8 °F -57.0 °F - N/A% 30.06 in 9.0 mi SSW 10.4 mph - N/A   Unknown
2:13 PM -32.8 °F -57.0 °F - N/A% 30.02 in 9.0 mi SSW 10.4 mph - N/A   Unknown
2:32 PM -31.0 °F -57.1 °F - N/A% 30.03 in 9.0 mi SSW 12.7 mph - N/A   Unknown
2:40 PM -32.8 °F -55.6 °F - N/A% 30.03 in 9.0 mi SSW 9.2 mph - N/A   Unknown
3:00 PM -35 °F - - % 30.06 in 5 mi South 9.2 mph - -  
3:00 PM -34.6 °F -56.3 °F - N/A% 30.06 in 5.0 mi South 8.1 mph - N/A   Unknown
3:06 PM -36.4 °F -56.8 °F - N/A% 30.03 in 3.5 mi South 6.9 mph - N/A   Unknown
3:10 PM -36.4 °F -56.8 °F - N/A% 30.03 in 3.0 mi South 6.9 mph - N/A   Unknown
3:25 PM -38.2 °F -62.3 °F - N/A% 30.03 in 2.8 mi South 9.2 mph - N/A   Unknown
3:37 PM -38.2 °F -58.9 °F - N/A% 30.02 in 3.0 mi South 6.9 mph - N/A   Unknown
3:38 PM -38.2 °F -60.7 °F - N/A% 30.02 in 3.0 mi South 8.1 mph - N/A   Unknown
3:48 PM -38.2 °F -60.7 °F - N/A% 30.03 in 2.1 mi SSW 8.1 mph - N/A   Unknown
3:57 PM -38.2 °F -60.7 °F - N/A% 30.02 in 2.1 mi South 8.1 mph - N/A   Unknown
4:00 PM -36.4 °F -60.1 °F - N/A% 30.06 in 2.2 mi South 9.2 mph - N/A   Unknown
4:12 PM -38.2 °F -56.9 °F - N/A% 30.02 in 1.8 mi South 5.8 mph - N/A   Unknown
4:38 PM -36.4 °F -60.1 °F - N/A% 30.01 in 2.4 mi South 9.2 mph - N/A   Unknown
4:39 PM -36.4 °F -60.1 °F - N/A% 30.01 in 2.5 mi South 9.2 mph - N/A   Unknown
4:51 PM -36.4 °F -60.1 °F - N/A% 30.02 in 4.0 mi South 9.2 mph - N/A   Unknown
4:52 PM -36.4 °F -60.1 °F - N/A% 30.02 in 4.0 mi South 9.2 mph - N/A   Unknown
5:00 PM -36.4 °F -58.5 °F - N/A% 30.05 in 3.5 mi South 8.1 mph - N/A   Unknown
5:05 PM -36.4 °F -60.1 °F - N/A% 30.01 in 3.0 mi South 9.2 mph - N/A   Unknown
5:45 PM -32.8 °F -55.6 °F - N/A% 30.00 in 3.0 mi South 9.2 mph - N/A   Unknown
5:47 PM -32.8 °F -55.6 °F - N/A% 30.00 in 3.0 mi South 9.2 mph - N/A   Unknown
6:00 PM -31 °F - - % 30.03 in 2 mi SSW 11.5 mph - -  
6:00 PM -31.0 °F -56.0 °F - N/A% 30.03 in 2.2 mi SSW 11.5 mph - N/A   Unknown
6:08 PM -29.2 °F -54.8 °F - N/A% 30.00 in 2.1 mi SSW 12.7 mph - N/A   Unknown
6:09 PM -29.2 °F -54.8 °F - N/A% 30.00 in 2.1 mi SSW 12.7 mph - N/A   Unknown
6:28 PM -29.2 °F -53.7 °F - N/A% 29.99 in 2.1 mi SW 11.5 mph - N/A   Unknown
6:36 PM -29.2 °F -52.5 °F - N/A% 29.99 in 2.4 mi SSW 10.4 mph - N/A   Unknown
6:45 PM -29.2 °F -51.2 °F - N/A% 29.98 in 3.0 mi SSW 9.2 mph - N/A   Unknown
6:52 PM -29.2 °F -51.2 °F - N/A% 29.98 in 3.0 mi SSW 9.2 mph - N/A   Unknown
6:56 PM -29.2 °F -52.5 °F - N/A% 29.97 in 3.0 mi SSW 10.4 mph - N/A   Unknown
7:00 PM -29.2 °F -53.7 °F - N/A% 30.01 in 3.0 mi SSW 11.5 mph - N/A   Unknown
7:30 PM -29.2 °F -54.8 °F - N/A% 29.96 in 2.8 mi SSW 12.7 mph - N/A   Unknown
7:45 PM -29.2 °F -54.8 °F - N/A% 29.95 in 2.4 mi SSW 12.7 mph - N/A   Unknown
8:00 PM -29.2 °F -54.8 °F - N/A% 29.98 in 2.5 mi SSW 12.7 mph - N/A   Unknown
8:10 PM -27.4 °F -52.5 °F - N/A% 29.95 in 2.6 mi SSW 12.7 mph - N/A   Unknown
8:21 PM -27.4 °F -52.5 °F - N/A% 29.94 in 2.1 mi SSW 12.7 mph - N/A   Unknown
8:26 PM -27.4 °F -52.5 °F - N/A% 29.94 in 2.1 mi SSW 12.7 mph - N/A   Unknown
8:31 PM -25.6 °F -49.2 °F - N/A% 29.93 in 2.1 mi SSW 11.5 mph - N/A   Unknown
8:46 PM -25.6 °F -49.2 °F - N/A% 29.92 in 2.1 mi SSW 11.5 mph - N/A   Unknown
8:56 PM -25.6 °F -50.2 °F - N/A% 29.92 in 2.1 mi SSW 12.7 mph - N/A   Unknown
9:00 PM -26 °F - - % 29.95 in 3 mi SSW 12.7 mph - -  
9:00 PM -25.6 °F -50.2 °F - N/A% 29.95 in 3.0 mi SW 12.7 mph - N/A   Unknown
9:10 PM -25.6 °F -50.2 °F - N/A% 29.91 in 3.5 mi SW 12.7 mph - N/A   Unknown
9:20 PM -25.6 °F -48.0 °F - N/A% 29.90 in 4.0 mi SSW 10.4 mph - N/A   Unknown
10:00 PM -27.4 °F -51.4 °F - N/A% 29.92 in 6.0 mi South 11.5 mph - N/A   Unknown
10:08 PM -27.4 °F -51.4 °F - N/A% 29.88 in 6.0 mi South 11.5 mph - N/A   Unknown
10:38 PM -25.6 °F -49.2 °F - N/A% 29.87 in 4.0 mi SSW 11.5 mph - N/A   Unknown
10:59 PM -27.4 °F -51.4 °F - N/A% 29.86 in 4.0 mi SSW 11.5 mph - N/A   Unknown
11:00 PM -27.4 °F -51.4 °F - N/A% 29.89 in 4.0 mi SSW 11.5 mph - N/A   Unknown
11:20 PM -25.6 °F -49.2 °F - N/A% 29.85 in 3.5 mi SSW 11.5 mph - N/A   Unknown
11:33 PM -25.6 °F -50.2 °F - N/A% 29.85 in 3.0 mi SSW 12.7 mph - N/A   Unknown